This demonstration page uses our WeatherBlox Daily Observations layout. Learn more.

Left ArrowRight Arrow

47.50024, -111.30081

Hourly Observations for May 8, 2022

Temp ( °F °C ) Dew Point ( °F °C ) Humidity (%) Winds ( mph kmh ) Pressure ( in mb ) Visibility ( mi km ) Precip ( " mm )
12:53 am 00:53 Clear 41 5 28 -2.2 60 60 SW 13 20 29.56 1001 10 16 0.00 0.00
1:53 am 01:53 Clear 40 4.4 28 -2.2 63 63 SW 13 20 29.56 1001 10 16 0.00 0.00
2:53 am 02:53 Clear 38 3.3 27 -2.8 65 65 SSW 10 17 29.57 1001 10 16 0.00 0.00
3:53 am 03:53 Clear 39 3.9 27 -2.8 62 62 SW 13 20 29.57 1001 10 16 0.00 0.00
4:53 am 04:53 Clear 39 3.9 27 -2.8 62 62 SW 13 20 29.58 1002 10 16 0.00 0.00
5:53 am 05:53 Clear 40 4.4 26 -3.3 58 58 SW 15 24 29.58 1002 10 16 0.00 0.00
6:53 am 06:53 Partly Cloudy 40 4.4 25 -3.9 55 55 SW 15 24 29.58 1002 10 16 0.00 0.00
7:53 am 07:53 Mostly Sunny 42 5.6 23 -5 47 47 WSW 15 24 29.59 1002 10 16 0.00 0.00
8:53 am 08:53 Cloudy 42 5.6 23 -5 47 47 WSW 22 35 29.58 1002 10 16 0.00 0.00
9:53 am 09:53 Cloudy 43 6.1 22 -5.6 43 43 SW 18 30 29.61 1003 10 16 0.00 0.00
10:53 am 10:53 Sunny 47 8.3 22 -5.6 37 37 SW 14 22 29.59 1002 10 16 0.00 0.00
11:53 am 11:53 Sunny 49 9.4 21 -6.1 33 33 SW 15 24 29.55 1001 10 16 0.00 0.00
12:53 pm 12:53 Mostly Cloudy 49 9.4 21 -6.1 33 33 SSW 10 17 29.54 1000 10 16 0.00 0.00
1:53 pm 13:53 Mostly Cloudy 50 10 19 -7.2 29 29 W 13 20 29.52 1000 10 16 0.00 0.00
2:53 pm 14:53 Mostly Sunny 54 12.2 16 -8.9 22 22 WSW 13 20 29.50 999 10 16 0.00 0.00
3:53 pm 15:53 Mostly Cloudy 50 10 13 -10.6 22 22 W 12 19 29.50 999 10 16 0.00 0.00
4:53 pm 16:53 Mostly Sunny 52 11.1 15 -9.4 23 23 WSW 13 20 29.49 999 10 16 0.00 0.00
5:53 pm 17:53 Cloudy 49 9.4 15 -9.4 26 26 NNW 7 11 29.51 999 10 16 0.00 0.00
6:53 pm 18:53 Sunny 50 10 20 -6.7 30 30 S 12 19 29.51 999 10 16 0.00 0.00
7:53 pm 19:53 Mostly Cloudy 47 8.3 22 -5.6 37 37 WSW 10 17 29.53 1000 10 16 0.00 0.00
8:53 pm 20:53 Mostly Clear 41 5 20 -6.7 43 43 W 9 15 29.55 1001 10 16 0.00 0.00
9:53 pm 21:53 Cloudy 40 4.4 24 -4.4 53 53 SW 8 13 29.55 1001 10 16 0.00 0.00
10:53 pm 22:53 Cloudy 42 5.6 21 -6.1 43 43 W 8 13 29.54 1000 10 16 0.00 0.00
11:53 pm 23:53 Cloudy 41 5 17 -8.3 38 38 WSW 10 17 29.55 1001 10 16 0.00 0.00

Powered by AerisWeather